Change the Weather History Date:

Wednesday, September 5, 2012

  Actual Average Record
Temperature  
Mean Temperature 68 °F 64 °F  
Max Temperature 74 °F 75 °F 90 °F (1999)
Min Temperature 62 °F 53 °F 33 °F (1896)
Degree Days  
Heating Degree Days 0 3  
Month to date heating degree days 7 14  
Since 1 July heating degree days 43 64  
Cooling Degree Days 3 2  
Month to date cooling degree days 3 11  
Year to date cooling degree days 363 409  
Growing Degree Days 18 (Base 50)    
Moisture  
Dew Point 63 °F    
Average Humidity 84    
Maximum Humidity 100    
Minimum Humidity 68    
Precipitation  
Precipitation 0.94 in 0.09 in 0.94 in (2012)
Month to date precipitation 1.30 0.50  
Year to date precipitation 23.41 26.26  
Sea Level Pressure  
Sea Level Pressure 29.75 in    
Wind  
Wind Speed - (North)    
Max Wind Speed -    
Max Gust Speed -    
T = Trace of Precipitation, MM = Missing Value Source: NWS Daily Summary

Daily Weather History Graph

Daily Weather History Graph

Search for Another Location

Airport or City:

Trip Planner

Search our weather history database for the weather conditions in past years. The results will help you decide how hot, cold, wet, or windy it might be!

Date:

Astronomy

Sep. 05, 2012 Rise Set
Actual Time 6:15 AM EDT 7:16 PM EDT
Civil Twilight 5:46 AM EDT 7:45 PM EDT
Nautical Twilight 5:10 AM EDT 8:21 PM EDT
Astronomical Twilight 4:33 AM EDT 8:58 PM EDT
Moon 9:29 PM EDT (9/5) 11:31 AM EDT (9/5)
Length of Visible Light 13h 59m
Length of Day
13h 00m
Waning Gibbous, 76% of the Moon is Illuminated
Sep 5
Waning Gibbous
Sep 8
Last Quarter
Sep 15
New
Sep 22
First Quarter
Sep 29
Full

Hourly Weather History & Observations

Time (EDT) Temp. Dew Point Humidity Pressure Visibility Wind Dir Wind Speed Gust Speed Precip Events Conditions
12:54 AM 63.0 °F 62.1 °F 97% 29.77 in - North - - 0.28 in   Unknown
1:54 AM 63.0 °F 62.1 °F 97% 29.75 in - North - - 0.34 in   Unknown
2:54 AM 63.0 °F 62.1 °F 97% 29.70 in - North - - 0.41 in   Unknown
3:54 AM 63.0 °F 62.1 °F 97% 29.65 in - North - - 0.02 in   Unknown
4:54 AM 63.0 °F 62.1 °F 97% 29.62 in - North - - 0.03 in   Unknown
5:54 AM 64.0 °F 63.0 °F 96% 29.64 in - North - - 0.13 in   Unknown
6:54 AM 64.0 °F 63.0 °F 96% 29.66 in - North - - 0.03 in   Unknown
7:54 AM 64.9 °F 63.0 °F 93% 29.69 in - North - - N/A   Unknown
8:54 AM 66.0 °F 63.0 °F 90% 29.70 in - North - - N/A   Unknown
9:54 AM 68.0 °F 63.0 °F 84% 29.72 in - North - - N/A   Unknown
10:54 AM 72.0 °F 62.1 °F 71% 29.74 in - North - - N/A   Unknown
11:54 AM 70.0 °F 63.0 °F 78% 29.76 in - North - - N/A   Unknown
12:54 PM 69.1 °F 62.1 °F 78% 29.78 in - North - - N/A   Unknown
1:54 PM 71.1 °F 62.1 °F 73% 29.78 in - North - - N/A   Unknown
2:54 PM 72.0 °F 62.1 °F 71% 29.77 in - North - - N/A   Unknown
3:54 PM 73.0 °F 62.1 °F 68% 29.77 in - North - - N/A   Unknown
4:54 PM 73.9 °F 62.1 °F 66% 29.78 in - North - - N/A   Unknown
5:54 PM 73.0 °F 63.0 °F 71% 29.78 in - North - - N/A   Unknown
6:54 PM 70.0 °F 64.0 °F 81% 29.80 in - North - - N/A   Unknown
7:54 PM 66.9 °F 64.9 °F 93% 29.81 in - North - - N/A   Unknown
8:54 PM 64.9 °F 63.0 °F 93% 29.83 in - North - - N/A   Unknown
9:54 PM 63.0 °F 62.1 °F 97% 29.83 in - North - - N/A   Unknown
10:54 PM 63.0 °F 62.1 °F 97% 29.83 in - North - - N/A   Unknown
11:54 PM 62.1 °F 62.1 °F 100% 29.83 in - North - - N/A   Unknown